| time (UTC) | temp C | wind direction | speed KPH | gust KPH | rain 1hr cm | rain 24hr cm | rain mn cm | humidity % | barometer mb |
| 20260506232503 | 26 | 106 | 6.4 | 8.0 | 0.00 | 0.00 | 0.00 | 82 | 1014.7 |
| 20260506232003 | 26 | 213 | 9.7 | 14.5 | 0.00 | 0.00 | 0.00 | 81 | 1014.9 |
| 20260506231503 | 26 | 187 | 6.4 | 8.0 | 0.00 | 0.00 | 0.00 | 81 | 1014.6 |
| 20260506231003 | 26 | 201 | 9.7 | 11.3 | 0.00 | 0.00 | 0.00 | 79 | 1014.6 |
| 20260506230503 | 26 | 209 | 9.7 | 11.3 | 0.00 | 0.00 | 0.00 | 79 | 1014.5 |
| 20260506230002 | 26 | 180 | 6.4 | 9.7 | 0.00 | 0.00 | 0.00 | 78 | 1014.7 |
| 20260506225503 | 26 | 143 | 9.7 | 11.3 | 0.00 | 0.00 | 0.00 | 77 | 1014.8 |
| 20260506225003 | 26 | 161 | 8.0 | 11.3 | 0.00 | 0.00 | 0.00 | 78 | 1014.8 |
| 20260506224503 | 27 | 220 | 8.0 | 9.7 | 0.00 | 0.00 | 0.00 | 76 | 1014.8 |
| 20260506223503 | 27 | 203 | 8.0 | 9.7 | 0.00 | 0.00 | 0.00 | 75 | 1015.0 |
| 20260506222503 | 27 | 173 | 11.3 | 14.5 | 0.00 | 0.00 | 0.00 | 74 | 1015.2 |
| 20260506222003 | 27 | 196 | 8.0 | 11.3 | 0.00 | 0.00 | 0.00 | 73 | 1015.1 |
| 20260506221504 | 27 | 199 | 9.7 | 11.3 | 0.00 | 0.00 | 0.00 | 73 | 1015.2 |
| 20260506221003 | 27 | 200 | 9.7 | 11.3 | 0.00 | 0.00 | 0.00 | 73 | 1015.0 |
| 20260506220503 | 27 | 208 | 12.9 | 16.1 | 0.00 | 0.00 | 0.00 | 72 | 1015.2 |
| 20260506220002 | 27 | 168 | 6.4 | 8.0 | 0.00 | 0.00 | 0.00 | 72 | 1015.4 |
| 20260506215503 | 27 | 240 | 6.4 | 9.7 | 0.00 | 0.00 | 0.00 | 73 | 1015.6 |
| 20260506215003 | 27 | 227 | 4.8 | 8.0 | 0.00 | 0.00 | 0.00 | 72 | 1015.4 |
| 20260506214503 | 28 | 190 | 9.7 | 14.5 | 0.00 | 0.00 | 0.00 | 70 | 1015.5 |
| 20260506214003 | 28 | 166 | 8.0 | 11.3 | 0.00 | 0.00 | 0.00 | 72 | 1015.8 |
| 20260506213503 | 28 | 227 | 8.0 | 11.3 | 0.00 | 0.00 | 0.00 | 71 | 1015.8 |
| 20260506213003 | 28 | 241 | 6.4 | 8.0 | 0.00 | 0.00 | 0.00 | 70 | 1015.8 |
| 20260506212503 | 28 | 233 | 6.4 | 9.7 | 0.00 | 0.00 | 0.00 | 70 | 1015.7 |
| 20260506212003 | 27 | 223 | 4.8 | 6.4 | 0.00 | 0.00 | 0.00 | 70 | 1015.8 |
| 20260506211502 | 28 | 182 | 9.7 | 11.3 | 0.00 | 0.00 | 0.00 | 68 | 1015.6 |
| 20260506211003 | 28 | 200 | 4.8 | 8.0 | 0.00 | 0.00 | 0.00 | 68 | 1015.7 |
| 20260506210503 | 28 | 206 | 6.4 | 8.0 | 0.00 | 0.00 | 0.00 | 67 | 1015.7 |
| 20260506210003 | 27 | 148 | 3.2 | 4.8 | 0.00 | 0.00 | 0.00 | 71 | 1016.2 |
| 20260506205503 | 27 | 242 | 8.0 | 11.3 | 0.00 | 0.00 | 0.00 | 72 | 1016.0 |
| 20260506204503 | 28 | 233 | 6.4 | 8.0 | 0.00 | 0.00 | 0.00 | 71 | 1015.9 |
| 20260506204003 | 27 | 280 | 6.4 | 9.7 | 0.00 | 0.00 | 0.00 | 71 | 1016.0 |
| 20260506203503 | 28 | 189 | 11.3 | 16.1 | 0.00 | 0.00 | 0.00 | 72 | 1016.1 |
| 20260506203003 | 28 | 165 | 6.4 | 8.0 | 0.00 | 0.00 | 0.00 | 71 | 1015.9 |
| 20260506202503 | 28 | 187 | 8.0 | 11.3 | 0.00 | 0.00 | 0.00 | 71 | 1016.4 |
| 20260506202003 | 28 | 213 | 6.4 | 8.0 | 0.00 | 0.00 | 0.00 | 72 | 1016.5 |
| 20260506201502 | 28 | 244 | 8.0 | 11.3 | 0.00 | 0.00 | 0.00 | 71 | 1016.5 |
| 20260506200503 | 28 | 188 | 6.4 | 9.7 | 0.00 | 0.00 | 0.00 | 72 | 1016.6 |
| 20260506200003 | 28 | 234 | 12.9 | 14.5 | 0.00 | 0.00 | 0.00 | 73 | 1017.1 |
| 20260506195503 | 28 | 252 | 8.0 | 8.0 | 0.00 | 0.00 | 0.00 | 72 | 1017.1 |
| 20260506194502 | 27 | 226 | 6.4 | 11.3 | 0.00 | 0.00 | 0.00 | 74 | 1017.1 |
| 20260506194002 | 27 | 222 | 8.0 | 9.7 | 0.00 | 0.00 | 0.00 | 74 | 1017.1 |
| 20260506193503 | 28 | 218 | 6.4 | 11.3 | 0.00 | 0.00 | 0.00 | 73 | 1017.4 |
| 20260506193003 | 28 | 209 | 6.4 | 9.7 | 0.00 | 0.00 | 0.00 | 73 | 1017.2 |
| 20260506192503 | 28 | 230 | 9.7 | 14.5 | 0.00 | 0.00 | 0.00 | 73 | 1017.2 |
| 20260506192002 | 28 | 207 | 9.7 | 11.3 | 0.00 | 0.00 | 0.00 | 73 | 1017.3 |
| 20260506191502 | 28 | 203 | 11.3 | 16.1 | 0.00 | 0.00 | 0.00 | 73 | 1017.5 |
| 20260506191003 | 28 | 257 | 8.0 | 9.7 | 0.00 | 0.00 | 0.00 | 71 | 1017.4 |
| 20260506190503 | 28 | 202 | 11.3 | 16.1 | 0.00 | 0.00 | 0.00 | 72 | 1017.4 |
| 20260506185503 | 28 | 229 | 4.8 | 8.0 | 0.00 | 0.00 | 0.00 | 73 | 1017.6 |
| 20260506184503 | 28 | 242 | 8.0 | 9.7 | 0.00 | 0.00 | 0.00 | 69 | 1017.6 |
| 20260506184002 | 28 | 217 | 6.4 | 9.7 | 0.00 | 0.00 | 0.00 | 70 | 1017.7 |
| 20260506183503 | 28 | 161 | 4.8 | 6.4 | 0.00 | 0.00 | 0.00 | 69 | 1017.6 |
| 20260506183003 | 28 | 243 | 8.0 | 9.7 | 0.00 | 0.00 | 0.00 | 71 | 1017.5 |
| 20260506182503 | 28 | 194 | 3.2 | 4.8 | 0.00 | 0.00 | 0.00 | 72 | 1017.5 |
| 20260506182003 | 28 | 224 | 11.3 | 14.5 | 0.00 | 0.00 | 0.00 | 72 | 1017.5 |
| 20260506181503 | 28 | 174 | 9.7 | 11.3 | 0.00 | 0.00 | 0.00 | 70 | 1017.4 |
| 20260506181002 | 28 | 220 | 6.4 | 8.0 | 0.00 | 0.00 | 0.00 | 73 | 1017.8 |
| 20260506180503 | 28 | 197 | 6.4 | 9.7 | 0.00 | 0.00 | 0.00 | 73 | 1017.9 |
| 20260506180004 | 28 | 217 | 8.0 | 9.7 | 0.00 | 0.00 | 0.00 | 72 | 1018.0 |
| 20260506175502 | 28 | 264 | 8.0 | 11.3 | 0.00 | 0.00 | 0.00 | 71 | 1017.9 |
| 20260506175003 | 28 | 218 | 6.4 | 8.0 | 0.00 | 0.00 | 0.00 | 72 | 1017.9 |
| 20260506174503 | 28 | 232 | 4.8 | 6.4 | 0.00 | 0.00 | 0.00 | 72 | 1017.9 |
| 20260506173503 | 28 | 223 | 9.7 | 11.3 | 0.00 | 0.00 | 0.00 | 71 | 1017.8 |
| 20260506173003 | 28 | 218 | 6.4 | 6.4 | 0.00 | 0.00 | 0.00 | 73 | 1018.1 |
| 20260506172503 | 27 | 197 | 8.0 | 11.3 | 0.00 | 0.00 | 0.00 | 74 | 1018.0 |
| 20260506171503 | 27 | 237 | 6.4 | 8.0 | 0.00 | 0.00 | 0.00 | 75 | 1018.3 |
| 20260506170503 | 27 | 207 | 4.8 | 6.4 | 0.00 | 0.00 | 0.00 | 75 | 1018.3 |
| 20260506170003 | 27 | 220 | 4.8 | 6.4 | 0.00 | 0.00 | 0.00 | 77 | 1018.2 |
| 20260506165503 | 26 | 230 | 4.8 | 6.4 | 0.00 | 0.00 | 0.00 | 78 | 1018.2 |
| 20260506165003 | 27 | 206 | 8.0 | 9.7 | 0.00 | 0.00 | 0.00 | 77 | 1018.1 |
| 20260506164503 | 27 | 206 | 6.4 | 8.0 | 0.00 | 0.00 | 0.00 | 76 | 1018.0 |
| 20260506164003 | 27 | 167 | 6.4 | 8.0 | 0.00 | 0.00 | 0.00 | 76 | 1017.9 |
| 20260506163503 | 27 | 202 | 6.4 | 6.4 | 0.00 | 0.00 | 0.00 | 76 | 1017.8 |
| 20260506162502 | 26 | 212 | 8.0 | 9.7 | 0.00 | 0.00 | 0.00 | 78 | 1017.9 |
| 20260506162003 | 26 | 214 | 6.4 | 9.7 | 0.00 | 0.00 | 0.00 | 78 | 1017.8 |
| 20260506161503 | 26 | 226 | 8.0 | 9.7 | 0.00 | 0.00 | 0.00 | 78 | 1017.8 |
| 20260506161003 | 26 | 185 | 3.2 | 4.8 | 0.00 | 0.00 | 0.00 | 78 | 1017.7 |
| 20260506160503 | 26 | 168 | 8.0 | 16.1 | 0.00 | 0.00 | 0.00 | 78 | 1017.6 |
| 20260506155502 | 26 | 194 | 8.0 | 9.7 | 0.00 | 0.00 | 0.00 | 77 | 1017.7 |
| 20260506155003 | 26 | 133 | 4.8 | 8.0 | 0.00 | 0.00 | 0.00 | 79 | 1017.7 |
| 20260506154503 | 26 | 178 | 4.8 | 6.4 | 0.00 | 0.00 | 0.00 | 79 | 1017.6 |
| 20260506154003 | 26 | 195 | 9.7 | 9.7 | 0.00 | 0.00 | 0.00 | 78 | 1017.6 |
| 20260506153503 | 26 | 212 | 8.0 | 14.5 | 0.00 | 0.00 | 0.00 | 80 | 1017.7 |
| 20260506153003 | 26 | 240 | 9.7 | 11.3 | 0.00 | 0.00 | 0.00 | 80 | 1017.6 |
| 20260506152502 | 26 | 220 | 11.3 | 14.5 | 0.00 | 0.00 | 0.00 | 78 | 1017.4 |
| 20260506152003 | 26 | 230 | 8.0 | 8.0 | 0.00 | 0.00 | 0.00 | 79 | 1017.4 |
| 20260506151504 | 25 | 268 | 4.8 | 6.4 | 0.00 | 0.00 | 0.00 | 80 | 1017.4 |
| 20260506151002 | 25 | 201 | 11.3 | 14.5 | 0.00 | 0.00 | 0.00 | 81 | 1017.5 |
| 20260506150503 | 25 | 210 | 8.0 | 9.7 | 0.00 | 0.00 | 0.00 | 80 | 1017.2 |
| 20260506145503 | 26 | 215 | 12.9 | 16.1 | 0.00 | 0.00 | 0.00 | 80 | 1017.2 |
| 20260506145003 | 26 | 224 | 8.0 | 9.7 | 0.00 | 0.00 | 0.00 | 80 | 1017.1 |
| 20260506144502 | 26 | 173 | 6.4 | 8.0 | 0.00 | 0.00 | 0.00 | 80 | 1017.1 |
| 20260506143503 | 25 | 170 | 6.4 | 8.0 | 0.00 | 0.00 | 0.00 | 80 | 1017.1 |
| 20260506143003 | 25 | 175 | 6.4 | 8.0 | 0.00 | 0.00 | 0.00 | 81 | 1017.2 |
| 20260506142503 | 25 | 202 | 8.0 | 9.7 | 0.00 | 0.00 | 0.00 | 81 | 1017.0 |
| 20260506141503 | 25 | 202 | 6.4 | 8.0 | 0.00 | 0.00 | 0.00 | 81 | 1016.8 |
| 20260506140503 | 25 | 148 | 9.7 | 11.3 | 0.00 | 0.00 | 0.00 | 82 | 1016.7 |
| 20260506140002 | 25 | 180 | 8.0 | 9.7 | 0.00 | 0.00 | 0.00 | 82 | 1016.9 |
| 20260506135502 | 25 | 210 | 4.8 | 6.4 | 0.00 | 0.00 | 0.00 | 82 | 1016.8 |
| 20260506135003 | 25 | 173 | 8.0 | 9.7 | 0.00 | 0.00 | 0.00 | 83 | 1016.7 |
| 20260506134503 | 25 | 178 | 4.8 | 8.0 | 0.00 | 0.00 | 0.00 | 84 | 1016.6 |
| 20260506133502 | 24 | 197 | 3.2 | 6.4 | 0.00 | 0.00 | 0.00 | 86 | 1016.8 |
| 20260506132503 | 25 | 174 | 6.4 | 9.7 | 0.00 | 0.00 | 0.00 | 86 | 1016.4 |
| 20260506132002 | 24 | 192 | 8.0 | 9.7 | 0.00 | 0.00 | 0.00 | 86 | 1016.6 |
| 20260506131503 | 23 | 217 | 8.0 | 8.0 | 0.00 | 0.00 | 0.00 | 87 | 1016.2 |
| 20260506131003 | 23 | 234 | 6.4 | 8.0 | 0.00 | 0.00 | 0.00 | 88 | 1016.1 |
| 20260506130503 | 23 | 212 | 4.8 | 6.4 | 0.00 | 0.00 | 0.00 | 88 | 1016.2 |
| 20260506125502 | 23 | 179 | 6.4 | 9.7 | 0.00 | 0.00 | 0.00 | 90 | 1016.1 |
| 20260506125003 | 23 | 189 | 6.4 | 8.0 | 0.00 | 0.00 | 0.00 | 91 | 1016.1 |
| 20260506124503 | 23 | 59 | 1.6 | 3.2 | 0.00 | 0.00 | 0.00 | 93 | 1016.1 |
| 20260506124003 | 23 | 51 | 1.6 | 3.2 | 0.00 | 0.00 | 0.00 | 93 | 1016.0 |
| 20260506123503 | 22 | 50 | 1.6 | 3.2 | 0.00 | 0.00 | 0.00 | 95 | 1016.0 |
| 20260506123003 | 22 | 44 | 1.6 | 3.2 | 0.00 | 0.00 | 0.00 | 95 | 1016.0 |
| 20260506122502 | 22 | 32 | 0.0 | 0.0 | 0.00 | 0.00 | 0.00 | 95 | 1015.6 |
| 20260506122003 | 21 | 61 | 1.6 | 3.2 | 0.00 | 0.00 | 0.00 | 95 | 1015.7 |
| 20260506121503 | 21 | 138 | 4.8 | 6.4 | 0.00 | 0.00 | 0.00 | 95 | 1015.5 |
| 20260506121003 | 21 | 90 | 4.8 | 6.4 | 0.00 | 0.00 | 0.00 | 95 | 1015.5 |
| 20260506120503 | 21 | 75 | 1.6 | 3.2 | 0.00 | 0.00 | 0.00 | 95 | 1015.2 |
| 20260506120004 | 21 | 44 | 0.0 | 0.0 | 0.00 | 0.00 | 0.00 | 95 | 1015.1 |
| 20260506115502 | 21 | 58 | 0.0 | 0.0 | 0.00 | 0.00 | 0.00 | 95 | 1015.2 |
| 20260506115003 | 21 | 122 | 4.8 | 6.4 | 0.00 | 0.00 | 0.00 | 94 | 1015.1 |
| 20260506114503 | 21 | 116 | 3.2 | 4.8 | 0.00 | 0.00 | 0.00 | 95 | 1015.2 |
| 20260506114005 | 22 | 58 | 3.2 | 4.8 | 0.00 | 0.00 | 0.00 | 95 | 1015.0 |
| 20260506113503 | 22 | 142 | 3.2 | 4.8 | 0.00 | 0.00 | 0.00 | 95 | 1015.0 |
| 20260506113003 | 22 | 184 | 4.8 | 4.8 | 0.00 | 0.00 | 0.00 | 95 | 1014.7 |
| 20260506112503 | 22 | 60 | 1.6 | 3.2 | 0.00 | 0.00 | 0.00 | 95 | 1014.7 |
| 20260506111504 | 22 | 166 | 3.2 | 4.8 | 0.00 | 0.00 | 0.00 | 95 | 1014.7 |
| 20260506111003 | 22 | 72 | 1.6 | 3.2 | 0.00 | 0.00 | 0.00 | 95 | 1014.7 |
| 20260506110504 | 21 | 110 | 3.2 | 4.8 | 0.00 | 0.00 | 0.00 | 95 | 1014.3 |
| 20260506110004 | 21 | 114 | 1.6 | 3.2 | 0.00 | 0.00 | 0.00 | 95 | 1014.7 |
| 20260506105503 | 21 | 117 | 6.4 | 8.0 | 0.00 | 0.00 | 0.00 | 95 | 1014.7 |
| 20260506105003 | 22 | 62 | 1.6 | 3.2 | 0.00 | 0.00 | 0.00 | 95 | 1014.4 |
| 20260506104507 | 22 | 56 | 0.0 | 0.0 | 0.00 | 0.00 | 0.00 | 95 | 1014.6 |
| 20260506104003 | 22 | 54 | 0.0 | 0.0 | 0.00 | 0.00 | 0.00 | 95 | 1014.5 |
| 20260506103503 | 22 | 129 | 3.2 | 4.8 | 0.00 | 0.00 | 0.00 | 95 | 1014.4 |
| 20260506103003 | 22 | 64 | 1.6 | 3.2 | 0.00 | 0.00 | 0.00 | 95 | 1014.4 |
| 20260506102503 | 22 | 82 | 1.6 | 3.2 | 0.00 | 0.00 | 0.00 | 95 | 1014.5 |
| 20260506102003 | 22 | 72 | 1.6 | 3.2 | 0.00 | 0.00 | 0.00 | 95 | 1014.5 |
| 20260506101503 | 22 | 86 | 1.6 | 3.2 | 0.00 | 0.00 | 0.00 | 95 | 1014.5 |
| 20260506101003 | 22 | 69 | 1.6 | 3.2 | 0.00 | 0.00 | 0.00 | 95 | 1014.5 |
| 20260506100502 | 22 | 84 | 1.6 | 3.2 | 0.00 | 0.00 | 0.00 | 95 | 1014.2 |
| 20260506095503 | 22 | 58 | 0.0 | 0.0 | 0.00 | 0.00 | 0.00 | 94 | 1014.6 |
| 20260506095003 | 22 | 94 | 1.6 | 3.2 | 0.00 | 0.00 | 0.00 | 94 | 1014.3 |
| 20260506094503 | 22 | 173 | 3.2 | 6.4 | 0.00 | 0.00 | 0.00 | 94 | 1014.4 |
| 20260506093503 | 22 | 80 | 1.6 | 3.2 | 0.00 | 0.00 | 0.00 | 94 | 1014.2 |
| 20260506093003 | 22 | 165 | 4.8 | 6.4 | 0.00 | 0.00 | 0.00 | 94 | 1014.4 |
| 20260506092503 | 22 | 70 | 1.6 | 3.2 | 0.00 | 0.00 | 0.00 | 94 | 1014.5 |
| 20260506091502 | 22 | 72 | 0.0 | 0.0 | 0.00 | 0.00 | 0.00 | 94 | 1014.4 |
| 20260506091003 | 22 | 59 | 0.0 | 0.0 | 0.00 | 0.00 | 0.00 | 94 | 1014.3 |
| 20260506090503 | 22 | 70 | 1.6 | 3.2 | 0.00 | 0.00 | 0.00 | 94 | 1014.5 |
| 20260506090003 | 22 | 166 | 3.2 | 4.8 | 0.00 | 0.00 | 0.00 | 94 | 1014.7 |
| 20260506085502 | 22 | 156 | 3.2 | 4.8 | 0.00 | 0.00 | 0.00 | 94 | 1014.5 |
| 20260506084503 | 22 | 88 | 1.6 | 3.2 | 0.00 | 0.00 | 0.00 | 94 | 1014.5 |
| 20260506084008 | 22 | 145 | 3.2 | 6.4 | 0.00 | 0.00 | 0.00 | 93 | 1014.5 |
| 20260506083503 | 22 | 164 | 3.2 | 4.8 | 0.00 | 0.00 | 0.00 | 93 | 1014.5 |
| 20260506083003 | 22 | 58 | 0.0 | 0.0 | 0.00 | 0.00 | 0.00 | 93 | 1014.4 |
| 20260506082503 | 22 | 174 | 6.4 | 6.4 | 0.00 | 0.00 | 0.00 | 93 | 1014.8 |
| 20260506081503 | 22 | 115 | 3.2 | 6.4 | 0.00 | 0.00 | 0.00 | 93 | 1015.0 |
| 20260506081003 | 22 | 169 | 3.2 | 4.8 | 0.00 | 0.00 | 0.00 | 93 | 1014.8 |
| 20260506080503 | 22 | 161 | 3.2 | 4.8 | 0.00 | 0.00 | 0.00 | 93 | 1015.1 |
| 20260506073503 | 22 | 226 | 4.8 | 6.4 | 0.00 | 0.00 | 0.00 | 93 | 1014.8 |
| 20260506073003 | 22 | 176 | 4.8 | 8.0 | 0.00 | 0.00 | 0.00 | 93 | 1014.8 |
| 20260506072503 | 22 | 173 | 3.2 | 6.4 | 0.00 | 0.00 | 0.00 | 93 | 1014.8 |
| 20260506071502 | 22 | 127 | 3.2 | 3.2 | 0.00 | 0.00 | 0.00 | 93 | 1015.0 |
| 20260506071003 | 22 | 49 | 1.6 | 3.2 | 0.00 | 0.00 | 0.00 | 93 | 1015.0 |
| 20260506070503 | 22 | 180 | 4.8 | 6.4 | 0.00 | 0.00 | 0.00 | 93 | 1014.9 |
| 20260506062502 | 22 | 172 | 4.8 | 6.4 | 0.00 | 0.00 | 0.00 | 93 | 1014.9 |
| 20260506062003 | 22 | 168 | 4.8 | 6.4 | 0.00 | 0.00 | 0.00 | 93 | 1015.2 |
| 20260506061503 | 22 | 131 | 3.2 | 4.8 | 0.00 | 0.00 | 0.00 | 93 | 1015.2 |
| 20260506061003 | 22 | 169 | 6.4 | 8.0 | 0.00 | 0.00 | 0.00 | 94 | 1015.2 |
| 20260506060503 | 22 | 228 | 6.4 | 8.0 | 0.00 | 0.00 | 0.00 | 93 | 1015.2 |
| 20260506051003 | 22 | 151 | 4.8 | 6.4 | 0.00 | 0.00 | 0.00 | 93 | 1015.7 |
| 20260506050503 | 22 | 99 | 1.6 | 3.2 | 0.00 | 0.00 | 0.00 | 93 | 1015.6 |
| 20260506045003 | 22 | 136 | 3.2 | 4.8 | 0.00 | 0.00 | 0.00 | 93 | 1015.7 |
| 20260506044503 | 22 | 117 | 1.6 | 3.2 | 0.00 | 0.00 | 0.00 | 93 | 1015.8 |
| 20260506044003 | 22 | 82 | 1.6 | 3.2 | 0.00 | 0.00 | 0.00 | 93 | 1015.8 |
| 20260506043503 | 22 | 129 | 3.2 | 4.8 | 0.00 | 0.00 | 0.00 | 93 | 1015.9 |
| 20260506042502 | 22 | 113 | 3.2 | 4.8 | 0.00 | 0.00 | 0.00 | 93 | 1016.1 |
| 20260506042003 | 22 | 101 | 1.6 | 3.2 | 0.00 | 0.00 | 0.00 | 93 | 1016.0 |
| 20260506041503 | 22 | 115 | 1.6 | 3.2 | 0.00 | 0.00 | 0.00 | 93 | 1016.0 |
| 20260506041003 | 22 | 101 | 3.2 | 4.8 | 0.00 | 0.00 | 0.00 | 93 | 1016.0 |
| 20260506040503 | 22 | 112 | 3.2 | 4.8 | 0.00 | 0.00 | 0.00 | 92 | 1016.3 |
| 20260506035503 | 22 | 98 | 0.0 | 0.0 | 0.00 | 0.00 | 0.00 | 92 | 1016.2 |
| 20260506035003 | 22 | 52 | 1.6 | 4.8 | 0.00 | 0.00 | 0.00 | 92 | 1016.4 |
| 20260506034503 | 22 | 156 | 3.2 | 4.8 | 0.00 | 0.00 | 0.00 | 92 | 1016.2 |
| 20260506034003 | 22 | 143 | 3.2 | 4.8 | 0.00 | 0.00 | 0.00 | 92 | 1016.2 |
| 20260506033506 | 22 | 61 | 0.0 | 0.0 | 0.00 | 0.00 | 0.00 | 92 | 1016.2 |
| 20260506032503 | 22 | 93 | 1.6 | 3.2 | 0.00 | 0.00 | 0.00 | 92 | 1016.2 |
| 20260506032003 | 22 | 123 | 1.6 | 4.8 | 0.00 | 0.00 | 0.00 | 92 | 1016.2 |
| 20260506031502 | 22 | 94 | 1.6 | 3.2 | 0.00 | 0.00 | 0.00 | 92 | 1016.2 |
| 20260506031003 | 22 | 173 | 4.8 | 6.4 | 0.00 | 0.00 | 0.00 | 92 | 1016.2 |
| 20260506030503 | 22 | 178 | 4.8 | 6.4 | 0.00 | 0.00 | 0.00 | 92 | 1016.4 |
| 20260506030003 | 22 | 94 | 3.2 | 4.8 | 0.00 | 0.00 | 0.00 | 92 | 1016.2 |
| 20260506025503 | 22 | 210 | 1.6 | 4.8 | 0.00 | 0.00 | 0.00 | 92 | 1016.2 |
| 20260506025004 | 22 | 127 | 3.2 | 4.8 | 0.00 | 0.00 | 0.00 | 92 | 1016.2 |
| 20260506024502 | 22 | 138 | 1.6 | 3.2 | 0.00 | 0.00 | 0.00 | 92 | 1016.1 |
| 20260506024003 | 22 | 163 | 4.8 | 8.0 | 0.00 | 0.00 | 0.00 | 92 | 1016.2 |
| 20260506023503 | 22 | 122 | 4.8 | 6.4 | 0.00 | 0.00 | 0.00 | 91 | 1016.1 |
| 20260506022502 | 22 | 189 | 6.4 | 8.0 | 0.00 | 0.00 | 0.00 | 91 | 1015.8 |
| 20260506021503 | 22 | 168 | 3.2 | 8.0 | 0.00 | 0.00 | 0.00 | 91 | 1016.0 |
| 20260506021004 | 22 | 149 | 4.8 | 6.4 | 0.00 | 0.00 | 0.00 | 90 | 1016.0 |
| 20260506020503 | 22 | 117 | 3.2 | 4.8 | 0.00 | 0.00 | 0.00 | 90 | 1016.3 |
| 20260506020003 | 22 | 204 | 3.2 | 4.8 | 0.00 | 0.00 | 0.00 | 90 | 1016.0 |
| 20260506015503 | 22 | 155 | 3.2 | 8.0 | 0.00 | 0.00 | 0.00 | 90 | 1016.1 |
| 20260506015003 | 22 | 128 | 4.8 | 8.0 | 0.00 | 0.00 | 0.00 | 90 | 1016.0 |
| 20260506014503 | 22 | 155 | 6.4 | 8.0 | 0.00 | 0.00 | 0.00 | 90 | 1015.6 |
| 20260506014003 | 22 | 166 | 3.2 | 4.8 | 0.00 | 0.00 | 0.00 | 90 | 1015.8 |
| 20260506013502 | 22 | 197 | 4.8 | 6.4 | 0.00 | 0.00 | 0.00 | 90 | 1015.8 |
| 20260506013003 | 22 | 177 | 3.2 | 8.0 | 0.00 | 0.00 | 0.00 | 90 | 1015.9 |
| 20260506012503 | 22 | 190 | 3.2 | 4.8 | 0.00 | 0.00 | 0.00 | 89 | 1015.8 |
| 20260506012002 | 22 | 115 | 3.2 | 4.8 | 0.00 | 0.00 | 0.00 | 89 | 1015.7 |
| 20260506011503 | 22 | 161 | 1.6 | 3.2 | 0.00 | 0.00 | 0.00 | 90 | 1015.6 |
| 20260506011003 | 22 | 188 | 6.4 | 8.0 | 0.00 | 0.00 | 0.00 | 89 | 1015.5 |
| 20260506010503 | 22 | 161 | 4.8 | 6.4 | 0.00 | 0.00 | 0.00 | 89 | 1015.7 |
| 20260506010003 | 22 | 190 | 4.8 | 6.4 | 0.00 | 0.00 | 0.00 | 89 | 1015.5 |
| 20260506005502 | 22 | 190 | 4.8 | 6.4 | 0.00 | 0.00 | 0.00 | 89 | 1015.4 |
| 20260506005003 | 22 | 160 | 4.8 | 8.0 | 0.00 | 0.00 | 0.00 | 88 | 1015.5 |
| 20260506004503 | 22 | 145 | 4.8 | 6.4 | 0.00 | 0.00 | 0.00 | 88 | 1015.2 |
| 20260506003503 | 22 | 115 | 6.4 | 9.7 | 0.00 | 0.00 | 0.00 | 88 | 1015.4 |
| 20260506003002 | 22 | 179 | 3.2 | 6.4 | 0.00 | 0.00 | 0.00 | 88 | 1015.2 |
| 20260506002503 | 23 | 170 | 6.4 | 9.7 | 0.00 | 0.00 | 0.00 | 88 | 1015.2 |
| 20260506001503 | 23 | 163 | 4.8 | 6.4 | 0.00 | 0.00 | 0.00 | 87 | 1015.2 |
| 20260506000503 | 23 | 159 | 6.4 | 9.7 | 0.00 | 0.00 | 0.00 | 86 | 1015.0 |
| 20260505235503 | 23 | 178 | 8.0 | 11.3 | 0.00 | 0.00 | 0.00 | 85 | 1015.4 |
| 20260505234503 | 23 | 193 | 9.7 | 16.1 | 0.00 | 0.00 | 0.00 | 85 | 1015.1 |
| 20260505234003 | 23 | 184 | 8.0 | 9.7 | 0.00 | 0.00 | 0.00 | 85 | 1015.3 |
| 20260505233503 | 23 | 180 | 8.0 | 11.3 | 0.00 | 0.00 | 0.00 | 83 | 1015.5 |